LEMUR-2-DUNLOP (43053 NORAD) Tracking and Keplerian Element Data

This shows tracking and keplerian element data for the satellite.

Feedback or suggestion? Click here.




ElementValue
Catalog43053
NameLEMUR-2-DUNLOP
Epoch Orbit21486
Epoch Day269.60586909
Epoch Year2021
RAAN260.8913
Inclination51.6311
Eccentricity0.0002484
Argument of Perigee88.4104
Mean Anonmoly271.7173
Mean Motion15.59590172
Decay Rate0.00031648
L11 43053U 17071S 21269.60586909 .00031648 00000-0 39476-3 0 9998
L22 43053 51.6311 260.8913 0002484 88.4104 271.7173 15.59590172214869

Live tracking and technical data element details for LEMUR-2-DUNLOP (NORAD 43053). LEMUR-2-DUNLOP can be tracked NOW for your location showing map with azimuth and elevation plus other details from your city location.

Track the satellite on the map from your city or location and see movement details for azimuth, elevation, latitude, longitude, range, height, and movement on the map or in text.







IsCatalogInMostPopularTable: catalog: 43053, numindb: 594
Update: records affected: 1



GetName: 43053 LEMUR-2-DUNLOP

Hit Count: updated at: Tue, 28 Sep 2021 15:52:09 GMT